Flight Track Log - Related Links

Times and Time Zones

All times are in EDT time to prevent confusion due to time zone crossing. See the SWA670 flight status page for this flight to view local times or setup timezone preferences in your user account.

Time Position Orientation Groundspeed Altitude Reporting Facility
EDT Latitude Longitude Course Direction KTS MPH feet Rate Location/Type
Tue 10:12:59 PM 40.8658 -111.9847 355° North 204 235 6,800  Level Salt Lake Center
Tue 10:13:09 PM 40.8778 -111.9869 352° North 200 230 6,900 2,459 Climbing Salt Lake Center
Tue 10:14:00 PM 40.9386 -111.9939 355° North 262 302 9,300 2,852 Climbing Salt Lake Center
Tue 10:14:10 PM 40.9508 -111.9964 351° North 262 302 9,800 3,091 Climbing Salt Lake Center
Tue 10:15:06 PM 41.0117 -111.9606 24° Northeast 285 328 12,700 2,537 Climbing Salt Lake Center
Tue 10:16:13 PM 40.9917 -111.8497 103° East 316 364 15,000 2,186 Climbing Salt Lake Center
Tue 10:17:15 PM 40.9597 -111.7372 111° Southeast 335 386 17,400 2,098 Climbing Salt Lake Center
Tue 10:18:16 PM 40.9219 -111.5858 108° East 370 426 19,300 2,049 Climbing Salt Lake Center
Tue 10:19:18 PM 40.9128 -111.4503 95° East 372 428 21,600 2,000 Climbing Salt Lake Center
Tue 10:20:19 PM 40.8992 -111.3094 97° East 391 450 23,400 1,854 Climbing Salt Lake Center
Tue 10:21:21 PM 40.8817 -111.1658 99° East 396 456 25,400 1,645 Climbing Salt Lake Center
Tue 10:22:23 PM 40.8644 -111.0189 99° East 403 464 26,800 1,268 Climbing Salt Lake Center
Tue 10:23:24 PM 40.8453 -110.8644 99° East 425 489 28,000 1,317 Climbing Salt Lake Center
Tue 10:24:26 PM 40.8258 -110.7058 99° East 435 501 29,500 1,659 Climbing Salt Lake Center
Tue 10:25:27 PM 40.8025 -110.5183 99° East 439 505 31,400 1,610 Climbing Salt Lake Center
Tue 10:26:29 PM 40.7828 -110.3664 100° East 440 506 32,800 1,258 Climbing Salt Lake Center
Tue 10:27:31 PM 40.7606 -110.1864 99° East 442 509 34,000 1,220 Climbing Salt Lake Center
Tue 10:28:32 PM 40.7414 -110.0303 99° East 445 512 35,300 1,415 Climbing Salt Lake Center
Tue 10:29:34 PM 40.7300 -109.8733 95° East 446 513 36,900 823 Climbing Salt Lake Center
Tue 10:30:36 PM 40.7175 -109.6967 95° East 439 505 37,000 49 Climbing Salt Lake Center
Tue 10:31:37 PM 40.7072 -109.5464 95° East 433 498 37,000  Level Salt Lake Center
Tue 10:32:39 PM 40.6936 -109.3714 96° East 432 497 37,000  Level Salt Lake Center
Tue 10:33:41 PM 40.6825 -109.2208 96° East 431 496 37,000  Level Salt Lake Center
Tue 10:34:41 PM 40.6703 -109.0669 96° East 433 498 37,000  Level Denver Center
Tue 10:35:42 PM 40.6556 -108.8819 96° East 447 514 37,000  Level Denver Center
Tue 10:36:44 PM 40.6436 -108.7219 96° East 453 521 37,000  Level Denver Center
Tue 10:37:45 PM 40.6308 -108.5650 96° East 453 521 37,000  Level Denver Center
Tue 10:38:47 PM 40.6156 -108.3833 96° East 448 516 37,000  Level Denver Center
Tue 10:39:50 PM 40.6022 -108.2200 96° East 440 506 37,000  Level Salt Lake Center
Tue 10:40:49 PM 40.5875 -108.0558 97° East 435 501 37,000  Level Denver Center
Tue 10:41:51 PM 40.5750 -107.9081 96° East 427 491 37,000  Level Denver Center
Tue 10:42:52 PM 40.5611 -107.7608 97° East 426 490 37,000  Level Denver Center
Tue 10:43:54 PM 40.5464 -107.5894 96° East 425 489 37,000  Level Denver Center
Tue 10:44:55 PM 40.5333 -107.4442 97° East 421 484 37,000  Level Denver Center
Tue 10:45:56 PM 40.5172 -107.2764 97° East 418 481 37,000  Level Denver Center
Tue 10:46:58 PM 40.5128 -107.1483 93° East 417 480 37,000  Level Denver Center
Tue 10:47:59 PM 40.5042 -106.9953 94° East 417 480 37,000  Level Denver Center
Tue 10:49:00 PM 40.4950 -106.8392 94° East 422 486 37,000  Level Denver Center
Tue 10:50:02 PM 40.4842 -106.6533 94° East 424 488 37,000 -390 Level Denver Center
Tue 10:51:03 PM 40.4764 -106.4994 94° East 424 488 36,200 -1,820 Descending Denver Center
Tue 10:52:04 PM 40.4669 -106.3456 95° East 421 484 33,300 -1,561 Descending Denver Center
Tue 10:53:06 PM 40.4581 -106.2067 95° East 402 463 33,000 -1,415 Descending Denver Center
Tue 10:54:07 PM 40.4483 -106.0397 94° East 408 470 30,400 -2,607 Descending Denver Center
Tue 10:55:08 PM 40.4294 -105.8886 99° East 418 481 27,700 -2,508 Descending Denver Center
Tue 10:56:09 PM 40.4053 -105.7417 102° East 416 479 25,300 -2,115 Descending Denver Center
Tue 10:57:10 PM 40.3822 -105.5994 102° East 407 468 23,400 -1,707 Descending Denver Center
Tue 10:58:12 PM 40.3608 -105.4600 101° East 393 452 21,800 -1,707 Descending Denver Center
Tue 10:59:13 PM 40.2964 -105.3425 126° Southeast 379 436 19,900 -1,756 Descending Denver Center
Tue 11:00:15 PM 40.2297 -105.2367 130° Southeast 374 430 18,200 -1,463 Descending Denver Center
Tue 11:01:16 PM 40.1553 -105.1192 130° Southeast 388 447 16,900 -732 Descending Denver Center
Tue 11:02:18 PM 40.0889 -105.0178 131° Southeast 369 425 16,700 -1,024 Descending Denver Center
Tue 11:03:19 PM 40.0203 -104.9108 130° Southeast 380 437 14,800 -1,918 Descending Denver Center
Tue 11:04:20 PM 39.9464 -104.8106 134° Southeast 387 445 12,800 -1,721 Descending Denver Center
Tue 11:05:21 PM 39.8342 -104.8072 179° South 383 441 11,300 -1,033 Descending Denver Center
Tue 11:06:22 PM 39.7383 -104.8100 181° South 337 388 10,700 -836 Descending Denver Center
Tue 11:07:23 PM 39.6594 -104.7922 170° South 303 349 9,600 -1,317 Descending Denver Center
Tue 11:08:25 PM 39.6544 -104.6939 94° East 263 303 8,000 -1,024 Descending Denver Center
Tue 11:09:26 PM 39.6919 -104.6603 35° Northeast 170 196 7,500 -393 Descending Denver Center
Tue 11:10:27 PM 39.7419 -104.6614 359° North 176 203 7,200 -541 Descending Denver Center
Tue 11:11:28 PM 39.7842 -104.6608 North 141 162 6,400 -787 Descending Denver Center
Tue 11:12:29 PM 39.8239 -104.6606 360° North 134 154 5,600 -787 Descending Denver Center
Tue 11:14:00 PM 39.8500 -104.6667 21° North  Level FlightAware Approximate
Tue 11:21:00 PM 39.8617 -104.6732 21° North  Level Estimated
Tue 11:22:00 PM 39.8617 -104.6732 21° North  Level Estimated
Tue 11:23:00 PM 39.8617 -104.6732 21° North  Level Estimated

Login

Don't have an account? Register now (free) for customized features, flight alerts, and more!